Datetime-UTC, Datetime-J2000, North, East, Up
2024/03/12 00:00:00, 763473600.00, 0.000000, 0.000000, 0.000000
2024/03/12 00:05:00, 763473900.00, -0.007700, 0.004400, -0.038200
2024/03/12 00:10:00, 763474200.00, 0.000400, 0.010000, -0.028400
2024/03/12 00:15:00, 763474500.00, -0.004900, 0.009500, -0.046500
2024/03/12 00:20:00, 763474800.00, 0.007400, 0.011900, -0.048500
2024/03/12 00:25:00, 763475100.00, -0.006500, 0.015300, -0.057700
2024/03/12 00:30:00, 763475400.00, 0.007400, 0.014200, -0.048600
2024/03/12 00:35:00, 763475700.00, 0.000000, 0.014500, -0.070100
2024/03/12 00:40:00, 763476000.00, 0.010800, 0.016900, -0.062800
2024/03/12 00:45:00, 763476300.00, 0.008900, 0.022100, -0.040400
2024/03/12 00:50:00, 763476600.00, 0.002200, 0.021700, -0.070600
2024/03/12 00:55:00, 763476900.00, 0.006600, 0.024400, -0.061200
2024/03/12 01:00:00, 763477200.00, 0.019200, 0.016400, -0.043500
2024/03/12 01:05:00, 763477500.00, 0.023500, 0.020200, -0.054500
2024/03/12 01:10:00, 763477800.00, 0.016300, 0.021700, -0.051300
2024/03/12 01:15:00, 763478100.00, 0.019600, 0.022100, -0.057300
2024/03/12 01:20:00, 763478400.00, 0.016200, 0.027900, -0.081000
2024/03/12 01:25:00, 763478700.00, 0.017700, 0.025400, -0.048900
2024/03/12 01:30:00, 763479000.00, 0.035700, 0.020600, -0.057700
2024/03/12 01:35:00, 763479300.00, 0.020600, 0.021400, -0.049900
2024/03/12 01:40:00, 763479600.00, 0.011600, 0.030400, -0.055500
2024/03/12 01:45:00, 763479900.00, 0.026300, 0.017300, -0.098100
2024/03/12 01:50:00, 763480200.00, 0.009200, 0.019800, -0.054600
2024/03/12 01:55:00, 763480500.00, 0.021100, 0.035600, -0.052200
2024/03/12 02:00:00, 763480800.00, 0.010600, 0.027400, -0.064700
2024/03/12 02:05:00, 763481100.00, 0.032000, 0.030600, -0.078700
2024/03/12 02:10:00, 763481400.00, 0.020400, 0.021300, -0.065500
2024/03/12 02:15:00, 763481700.00, 0.020900, 0.036600, -0.061300
2024/03/12 02:20:00, 763482000.00, 0.014400, 0.033200, -0.056200
2024/03/12 02:25:00, 763482300.00, 0.013900, 0.028800, -0.049100
2024/03/12 02:30:00, 763482600.00, 0.022600, 0.031600, -0.038700
2024/03/12 02:35:00, 763482900.00, 0.035700, 0.040400, -0.056300
2024/03/12 02:40:00, 763483200.00, 0.025600, 0.033300, -0.082700
2024/03/12 02:45:00, 763483500.00, 0.022500, 0.026000, -0.080200
2024/03/12 02:50:00, 763483800.00, 0.023700, 0.034600, -0.058200
2024/03/12 02:55:00, 763484100.00, 0.030000, 0.037200, -0.035600
2024/03/12 03:00:00, 763484400.00, 0.021300, 0.038400, -0.058700
2024/03/12 03:05:00, 763484700.00, 0.027900, 0.026800, -0.045500
2024/03/12 03:10:00, 763485000.00, 0.034300, 0.038100, -0.039800
2024/03/12 03:15:00, 763485300.00, 0.017900, 0.030600, -0.068900
2024/03/12 03:20:00, 763485600.00, 0.028700, 0.035300, -0.061700
2024/03/12 03:25:00, 763485900.00, 0.024800, 0.036600, -0.030700
2024/03/12 03:30:00, 763486200.00, 0.013400, 0.031500, -0.020600
2024/03/12 03:35:00, 763486500.00, 0.028900, 0.030000, -0.054700
2024/03/12 03:40:00, 763486800.00, 0.028500, 0.032100, -0.074000
2024/03/12 03:45:00, 763487100.00, 0.022600, 0.035200, -0.071900
2024/03/12 03:50:00, 763487400.00, 0.026500, 0.038400, -0.056400
2024/03/12 03:55:00, 763487700.00, 0.008000, 0.039300, -0.060000
2024/03/12 04:00:00, 763488000.00, 0.027200, 0.034600, -0.064400
2024/03/12 04:05:00, 763488300.00, 0.018600, 0.043300, -0.056300
2024/03/12 04:10:00, 763488600.00, 0.034900, 0.033000, -0.059500
2024/03/12 04:15:00, 763488900.00, 0.030300, 0.036600, -0.051800
2024/03/12 04:20:00, 763489200.00, 0.025400, 0.050800, -0.060500
2024/03/12 04:25:00, 763489500.00, 0.009200, 0.038800, -0.080900
2024/03/12 04:30:00, 763489800.00, 0.051000, 0.034500, -0.030900
2024/03/12 04:35:00, 763490100.00, 0.041700, 0.034000, -0.069400
2024/03/12 04:40:00, 763490400.00, 0.037000, 0.040000, -0.053300
2024/03/12 04:45:00, 763490700.00, 0.005900, 0.037100, -0.053700
2024/03/12 04:50:00, 763491000.00, 0.013100, 0.030600, -0.083600
2024/03/12 04:55:00, 763491300.00, 0.037500, 0.032200, -0.060600
2024/03/12 05:00:00, 763491600.00, 0.025700, 0.046600, -0.039900
2024/03/12 05:05:00, 763491900.00, 0.033000, 0.044200, -0.058700
2024/03/12 05:10:00, 763492200.00, 0.024500, 0.035600, -0.031700
2024/03/12 05:15:00, 763492500.00, 0.014400, 0.031700, -0.050800
2024/03/12 05:20:00, 763492800.00, 0.029700, 0.035800, -0.062900
2024/03/12 05:25:00, 763493100.00, 0.030900, 0.024300, -0.068700
2024/03/12 05:30:00, 763493400.00, 0.032300, 0.033400, -0.059100
2024/03/12 05:35:00, 763493700.00, 0.025400, 0.025300, -0.036300
2024/03/12 05:40:00, 763494000.00, 0.030400, 0.025200, -0.093500
2024/03/12 05:45:00, 763494300.00, 0.031600, 0.033700, -0.044700
2024/03/12 05:50:00, 763494600.00, 0.030100, 0.041100, -0.066600
2024/03/12 05:55:00, 763494900.00, 0.011700, 0.036200, -0.087600
2024/03/12 06:00:00, 763495200.00, 0.013100, 0.050300, -0.072000
2024/03/12 06:05:00, 763495500.00, 0.011000, 0.041600, -0.081000
2024/03/12 06:10:00, 763495800.00, 0.005400, 0.041500, -0.096000
2024/03/12 06:15:00, 763496100.00, 0.014300, 0.049600, -0.052000
2024/03/12 06:20:00, 763496400.00, 0.005100, 0.060200, -0.061500
2024/03/12 06:25:00, 763496700.00, -0.009000, 0.063000, -0.081700
2024/03/12 06:30:00, 763497000.00, 0.026200, 0.048400, -0.088300
2024/03/12 06:35:00, 763497300.00, 0.007700, 0.037900, -0.075000
2024/03/12 06:40:00, 763497600.00, 0.009900, 0.042500, -0.059900
2024/03/12 06:45:00, 763497900.00, 0.031700, 0.048100, -0.053100
2024/03/12 06:50:00, 763498200.00, 0.025800, 0.052300, -0.066200
2024/03/12 06:55:00, 763498500.00, 0.036800, 0.044400, -0.060500
2024/03/12 07:00:00, 763498800.00, 0.032000, 0.047500, -0.058100
2024/03/12 07:05:00, 763499100.00, 0.011700, 0.046700, -0.066000
2024/03/12 07:10:00, 763499400.00, 0.030000, 0.046000, -0.067300
2024/03/12 07:15:00, 763499700.00, 0.028800, 0.054800, -0.078800
2024/03/12 07:20:00, 763500000.00, 0.025400, 0.047000, -0.052400
2024/03/12 07:25:00, 763500300.00, 0.035000, 0.044400, -0.082500
2024/03/12 07:30:00, 763500600.00, 0.028300, 0.050100, -0.065100
2024/03/12 07:35:00, 763500900.00, 0.037200, 0.040400, -0.069800
2024/03/12 07:40:00, 763501200.00, 0.037500, 0.040800, -0.094100
2024/03/12 07:45:00, 763501500.00, 0.029200, 0.035100, -0.085100
2024/03/12 07:50:00, 763501800.00, 0.032000, 0.051700, -0.110900
2024/03/12 07:55:00, 763502100.00, 0.038900, 0.043200, -0.129300
2024/03/12 08:00:00, 763502400.00, 0.035500, 0.038900, -0.109000
2024/03/12 08:05:00, 763502700.00, 0.026400, 0.040100, -0.087600
2024/03/12 08:10:00, 763503000.00, 0.039200, 0.043800, -0.102800
2024/03/12 08:15:00, 763503300.00, 0.031000, 0.043800, -0.059600
2024/03/12 08:20:00, 763503600.00, 0.034600, 0.046800, -0.049200
2024/03/12 08:25:00, 763503900.00, 0.017800, 0.039000, -0.074500
2024/03/12 08:30:00, 763504200.00, 0.028300, 0.041300, -0.048400
2024/03/12 08:35:00, 763504500.00, 0.030700, 0.038900, -0.083300
2024/03/12 08:40:00, 763504800.00, 0.020700, 0.044600, -0.068200
2024/03/12 08:45:00, 763505100.00, 0.026600, 0.038600, -0.070200
2024/03/12 08:50:00, 763505400.00, 0.025200, 0.043300, -0.063100
2024/03/12 08:55:00, 763505700.00, 0.026900, 0.036600, -0.063300
2024/03/12 09:00:00, 763506000.00, 0.019900, 0.038100, -0.077900
2024/03/12 09:05:00, 763506300.00, 0.025800, 0.035600, -0.061100
2024/03/12 09:10:00, 763506600.00, 0.019600, 0.053000, -0.080500
2024/03/12 09:15:00, 763506900.00, 0.030700, 0.029300, -0.057900
2024/03/12 09:20:00, 763507200.00, 0.041900, 0.046200, -0.068800
2024/03/12 09:25:00, 763507500.00, 0.017400, 0.040800, -0.069600
2024/03/12 09:30:00, 763507800.00, 0.030400, 0.042000, -0.039500
2024/03/12 09:35:00, 763508100.00, 0.024600, 0.048300, -0.060500
2024/03/12 09:40:00, 763508400.00, 0.021100, 0.043300, -0.062600
2024/03/12 09:45:00, 763508700.00, 0.031300, 0.048700, -0.064900
2024/03/12 09:50:00, 763509000.00, 0.009700, 0.042800, -0.050600
2024/03/12 09:55:00, 763509300.00, 0.015700, 0.045700, -0.056600
2024/03/12 10:00:00, 763509600.00, 0.021800, 0.044700, -0.073800
2024/03/12 10:05:00, 763509900.00, 0.029200, 0.051700, -0.069600
2024/03/12 10:10:00, 763510200.00, 0.016400, 0.040900, -0.063400
2024/03/12 10:15:00, 763510500.00, 0.017400, 0.034000, -0.052400
2024/03/12 10:20:00, 763510800.00, 0.033600, 0.050500, -0.082000
2024/03/12 10:25:00, 763511100.00, 0.028900, 0.058800, -0.109600
2024/03/12 10:30:00, 763511400.00, 0.033600, 0.045800, -0.142000
2024/03/12 10:35:00, 763511700.00, 0.028000, 0.041200, -0.128000
2024/03/12 10:40:00, 763512000.00, 0.038500, 0.056400, -0.079900
2024/03/12 10:45:00, 763512300.00, 0.009200, 0.045200, -0.113500
2024/03/12 10:50:00, 763512600.00, 0.020200, 0.059500, -0.100400
2024/03/12 10:55:00, 763512900.00, 0.021100, 0.048600, -0.083200
2024/03/12 11:00:00, 763513200.00, 0.035200, 0.047700, -0.078000
2024/03/12 11:05:00, 763513500.00, 0.028900, 0.056100, -0.069500
2024/03/12 11:10:00, 763513800.00, 0.016500, 0.053600, -0.042900
2024/03/12 11:15:00, 763514100.00, 0.018600, 0.044500, -0.067000
2024/03/12 11:20:00, 763514400.00, 0.025200, 0.046200, -0.038200
2024/03/12 11:25:00, 763514700.00, 0.012800, 0.043900, -0.070100
2024/03/12 11:30:00, 763515000.00, 0.035100, 0.058900, -0.020900
2024/03/12 11:35:00, 763515300.00, 0.025800, 0.046500, -0.066500
2024/03/12 11:40:00, 763515600.00, 0.012800, 0.051100, -0.089400
2024/03/12 11:45:00, 763515900.00, 0.034200, 0.039000, -0.077700
2024/03/12 11:50:00, 763516200.00, 0.022400, 0.051200, -0.077700
2024/03/12 11:55:00, 763516500.00, 0.026800, 0.041900, -0.074600
2024/03/12 12:00:00, 763516800.00, 0.025100, 0.048800, -0.090100
2024/03/12 12:05:00, 763517100.00, 0.028700, 0.052800, -0.066500
2024/03/12 12:10:00, 763517400.00, 0.019200, 0.052100, -0.049100
2024/03/12 12:15:00, 763517700.00, 0.019500, 0.048300, -0.059900
2024/03/12 12:20:00, 763518000.00, 0.032700, 0.048700, -0.054600
2024/03/12 12:25:00, 763518300.00, 0.029500, 0.046900, -0.049000
2024/03/12 12:30:00, 763518600.00, 0.031000, 0.059500, -0.055900
2024/03/12 12:35:00, 763518900.00, 0.028900, 0.053200, -0.067500
2024/03/12 12:40:00, 763519200.00, 0.038700, 0.050100, -0.052600
2024/03/12 12:45:00, 763519500.00, 0.045700, 0.049200, -0.045600
2024/03/12 12:50:00, 763519800.00, 0.038200, 0.050700, -0.058500
2024/03/12 12:55:00, 763520100.00, 0.037800, 0.046500, -0.034100
2024/03/12 13:00:00, 763520400.00, 0.009400, 0.061200, -0.027500
2024/03/12 13:05:00, 763520700.00, 0.011800, 0.059900, -0.037600
2024/03/12 13:10:00, 763521000.00, 0.033200, 0.053100, -0.039700
2024/03/12 13:15:00, 763521300.00, 0.048900, 0.056800, -0.084100
2024/03/12 13:20:00, 763521600.00, 0.016900, 0.051500, -0.031000
2024/03/12 13:25:00, 763521900.00, 0.042200, 0.038700, -0.062800
2024/03/12 13:30:00, 763522200.00, 0.013600, 0.038000, -0.033500
2024/03/12 13:35:00, 763522500.00, 0.039500, 0.041700, -0.056300
2024/03/12 13:40:00, 763522800.00, 0.031000, 0.053400, -0.003200
2024/03/12 13:45:00, 763523100.00, 0.024900, 0.048800, -0.051400
2024/03/12 13:50:00, 763523400.00, 0.033800, 0.049700, -0.053800
2024/03/12 13:55:00, 763523700.00, 0.045800, 0.053900, -0.048500
2024/03/12 14:00:00, 763524000.00, 0.027700, 0.053200, -0.066000
2024/03/12 14:05:00, 763524300.00, 0.019100, 0.044500, -0.067000
2024/03/12 14:10:00, 763524600.00, 0.035000, 0.058300, -0.036300
2024/03/12 14:15:00, 763524900.00, 0.049100, 0.061200, -0.021300
2024/03/12 14:20:00, 763525200.00, 0.036900, 0.052200, -0.043100
2024/03/12 14:25:00, 763525500.00, 0.060600, 0.054600, -0.044700
2024/03/12 14:30:00, 763525800.00, 0.052200, 0.052000, -0.064300
2024/03/12 14:35:00, 763526100.00, 0.040800, 0.039600, -0.069300
2024/03/12 14:40:00, 763526400.00, 0.011500, 0.038600, -0.069000
2024/03/12 14:45:00, 763526700.00, 0.024100, 0.041900, -0.033300
2024/03/12 14:50:00, 763527000.00, 0.030800, 0.053300, -0.048100
2024/03/12 14:55:00, 763527300.00, 0.031000, 0.055800, -0.073000
2024/03/12 15:00:00, 763527600.00, 0.023700, 0.049800, -0.067400
2024/03/12 15:05:00, 763527900.00, 0.025300, 0.047200, -0.047300
2024/03/12 15:10:00, 763528200.00, 0.036800, 0.043800, -0.054100
2024/03/12 15:15:00, 763528500.00, 0.033400, 0.041100, -0.046700
2024/03/12 15:20:00, 763528800.00, 0.037800, 0.042700, -0.039300
2024/03/12 15:25:00, 763529100.00, 0.037400, 0.043900, -0.055300
2024/03/12 15:30:00, 763529400.00, 0.029000, 0.043400, -0.067500
2024/03/12 15:35:00, 763529700.00, 0.014800, 0.039500, -0.068400
2024/03/12 15:40:00, 763530000.00, 0.023200, 0.045100, -0.064700
2024/03/12 15:45:00, 763530300.00, 0.026400, 0.050600, -0.031600
2024/03/12 15:50:00, 763530600.00, 0.023500, 0.049700, -0.063800
2024/03/12 15:55:00, 763530900.00, 0.026800, 0.043300, -0.075800
2024/03/12 16:00:00, 763531200.00, 0.016700, 0.048500, -0.072700
2024/03/12 16:05:00, 763531500.00, 0.030500, 0.040700, -0.075000
2024/03/12 16:10:00, 763531800.00, 0.031500, 0.050400, -0.070400
2024/03/12 16:15:00, 763532100.00, 0.036800, 0.046000, -0.087800
2024/03/12 16:20:00, 763532400.00, 0.047900, 0.034300, -0.071800
2024/03/12 16:25:00, 763532700.00, 0.041500, 0.042800, -0.070600
2024/03/12 16:30:00, 763533000.00, 0.026600, 0.047300, -0.065800
2024/03/12 16:35:00, 763533300.00, 0.051800, 0.061100, -0.059200
2024/03/12 16:40:00, 763533600.00, 0.029800, 0.055100, -0.083900
2024/03/12 16:45:00, 763533900.00, 0.033400, 0.047100, -0.076300
2024/03/12 16:50:00, 763534200.00, 0.027700, 0.051500, -0.063900
2024/03/12 16:55:00, 763534500.00, 0.029500, 0.058100, -0.071800
2024/03/12 17:00:00, 763534800.00, 0.026600, 0.056100, -0.060900
2024/03/12 17:05:00, 763535100.00, 0.030200, 0.060000, -0.067900
2024/03/12 17:10:00, 763535400.00, 0.033900, 0.055600, -0.021800
2024/03/12 17:15:00, 763535700.00, 0.035200, 0.048800, -0.043300
2024/03/12 17:20:00, 763536000.00, 0.057200, 0.064700, -0.006400
2024/03/12 17:25:00, 763536300.00, 0.027900, 0.051300, -0.045400
2024/03/12 17:30:00, 763536600.00, 0.039800, 0.051900, -0.058200
2024/03/12 17:35:00, 763536900.00, 0.044500, 0.062500, -0.055400
2024/03/12 17:40:00, 763537200.00, 0.033600, 0.054300, -0.080300
2024/03/12 17:45:00, 763537500.00, 0.030600, 0.052000, -0.059600
2024/03/12 17:50:00, 763537800.00, 0.033800, 0.059400, -0.048400
2024/03/12 17:55:00, 763538100.00, 0.039200, 0.052800, -0.074500
2024/03/12 18:00:00, 763538400.00, 0.019200, 0.057100, -0.067400
2024/03/12 18:05:00, 763538700.00, 0.027600, 0.061400, -0.052300
2024/03/12 18:10:00, 763539000.00, 0.036200, 0.046500, -0.062800
2024/03/12 18:15:00, 763539300.00, 0.020900, 0.058600, -0.067300
2024/03/12 18:20:00, 763539600.00, 0.025000, 0.054800, -0.073600
2024/03/12 18:25:00, 763539900.00, 0.028000, 0.043500, -0.104800
2024/03/12 18:30:00, 763540200.00, 0.022300, 0.048900, -0.077300
2024/03/12 18:35:00, 763540500.00, 0.035100, 0.042800, -0.075100
2024/03/12 18:40:00, 763540800.00, 0.028000, 0.044900, -0.064600
2024/03/12 18:45:00, 763541100.00, 0.029200, 0.038200, -0.041900
2024/03/12 18:50:00, 763541400.00, 0.026300, 0.055500, -0.053400
2024/03/12 18:55:00, 763541700.00, 0.030100, 0.044200, -0.068800
2024/03/12 19:00:00, 763542000.00, 0.024200, 0.046700, -0.043400
2024/03/12 19:05:00, 763542300.00, 0.026100, 0.054400, -0.088800
2024/03/12 19:10:00, 763542600.00, 0.037600, 0.044100, -0.066000
2024/03/12 19:15:00, 763542900.00, 0.033700, 0.062300, -0.065000
2024/03/12 19:20:00, 763543200.00, 0.037900, 0.038400, -0.058500
2024/03/12 19:25:00, 763543500.00, 0.041200, 0.045000, -0.083900
2024/03/12 19:30:00, 763543800.00, 0.023400, 0.039500, -0.046200
2024/03/12 19:35:00, 763544100.00, 0.009600, 0.035600, -0.080700
2024/03/12 19:40:00, 763544400.00, 0.024200, 0.047800, -0.051400
2024/03/12 19:45:00, 763544700.00, 0.033500, 0.042600, -0.075100
2024/03/12 19:50:00, 763545000.00, 0.029000, 0.049700, -0.068000
2024/03/12 19:55:00, 763545300.00, 0.019200, 0.036800, -0.108900
2024/03/12 20:00:00, 763545600.00, 0.038000, 0.039500, -0.062700
2024/03/12 20:05:00, 763545900.00, 0.035400, 0.054900, -0.042600
2024/03/12 20:10:00, 763546200.00, 0.013000, 0.048700, -0.087500
2024/03/12 20:15:00, 763546500.00, 0.020700, 0.047600, -0.047200
2024/03/12 20:20:00, 763546800.00, 0.000900, 0.040500, -0.075400
2024/03/12 20:25:00, 763547100.00, 0.025100, 0.040600, -0.063300
2024/03/12 20:30:00, 763547400.00, 0.025900, 0.044400, -0.053900
2024/03/12 20:35:00, 763547700.00, 0.024800, 0.050500, -0.052100
2024/03/12 20:40:00, 763548000.00, 0.026900, 0.047700, -0.063600
2024/03/12 20:45:00, 763548300.00, 0.016000, 0.051500, -0.057400
2024/03/12 20:50:00, 763548600.00, 0.013900, 0.038800, -0.083500
2024/03/12 20:55:00, 763548900.00, 0.017700, 0.049000, -0.058400
2024/03/12 21:00:00, 763549200.00, 0.007300, 0.044800, -0.057000
2024/03/12 21:05:00, 763549500.00, 0.005300, 0.045300, -0.072600
2024/03/12 21:10:00, 763549800.00, 0.015100, 0.042100, -0.099300
2024/03/12 21:15:00, 763550100.00, 0.010400, 0.052300, -0.058200
2024/03/12 21:20:00, 763550400.00, 0.007300, 0.056300, -0.051600
2024/03/12 21:25:00, 763550700.00, 0.009800, 0.048900, -0.072700
2024/03/12 21:30:00, 763551000.00, -0.002000, 0.061800, -0.048700
2024/03/12 21:35:00, 763551300.00, 0.011300, 0.044100, -0.040700
2024/03/12 21:40:00, 763551600.00, 0.008900, 0.058900, -0.058300
2024/03/12 21:45:00, 763551900.00, 0.010800, 0.054200, -0.050000
2024/03/12 21:50:00, 763552200.00, 0.017000, 0.054300, -0.037000
2024/03/12 21:55:00, 763552500.00, 0.013100, 0.059700, -0.049000
2024/03/12 22:00:00, 763552800.00, 0.009800, 0.054800, -0.037700
2024/03/12 22:05:00, 763553100.00, 0.010600, 0.065100, -0.039600
2024/03/12 22:10:00, 763553400.00, 0.020400, 0.055900, -0.045000
2024/03/12 22:15:00, 763553700.00, 0.018300, 0.059200, -0.039600
2024/03/12 22:20:00, 763554000.00, 0.017900, 0.067000, -0.042000
2024/03/12 22:25:00, 763554300.00, -0.000500, 0.054100, -0.052300
2024/03/12 22:30:00, 763554600.00, -0.006300, 0.051300, -0.080200
2024/03/12 22:35:00, 763554900.00, 0.023700, 0.069600, -0.055100
2024/03/12 22:40:00, 763555200.00, 0.028700, 0.057400, -0.063400
2024/03/12 22:45:00, 763555500.00, 0.005700, 0.055800, -0.068000
2024/03/12 22:50:00, 763555800.00, 0.007700, 0.065400, -0.053400
2024/03/12 22:55:00, 763556100.00, 0.028500, 0.079000, -0.038600
2024/03/12 23:00:00, 763556400.00, 0.009300, 0.071600, -0.060100
2024/03/12 23:05:00, 763556700.00, 0.011400, 0.069700, -0.072300
2024/03/12 23:10:00, 763557000.00, -0.004000, 0.071500, -0.040400
2024/03/12 23:15:00, 763557300.00, 0.014200, 0.074100, -0.079700
2024/03/12 23:20:00, 763557600.00, -0.006400, 0.060100, -0.092800
2024/03/12 23:25:00, 763557900.00, -0.008100, 0.076600, -0.068600
2024/03/12 23:30:00, 763558200.00, -0.012300, 0.071500, -0.083500
2024/03/12 23:35:00, 763558500.00, -0.020900, 0.066000, -0.074200
2024/03/12 23:40:00, 763558800.00, -0.006200, 0.069100, -0.107300
2024/03/12 23:45:00, 763559100.00, -0.000200, 0.068600, -0.080700
2024/03/12 23:50:00, 763559400.00, -0.008700, 0.076700, -0.117900
2024/03/12 23:55:00, 763559700.00, -0.014400, 0.068100, -0.132100
2024/03/14 00:00:00, 763646400.00, 0.001800, 0.009300, -0.029200
2024/03/14 00:05:00, 763646700.00, -0.005000, 0.012800, -0.002600
2024/03/14 00:10:00, 763647000.00, 0.005700, 0.020900, -0.039200
2024/03/14 00:15:00, 763647300.00, -0.000500, 0.021600, -0.046800
2024/03/14 00:20:00, 763647600.00, -0.007100, 0.016400, -0.069200
2024/03/14 00:25:00, 763647900.00, 0.004900, 0.014900, -0.042800
2024/03/14 00:30:00, 763648200.00, 0.008700, 0.023400, -0.035500
2024/03/14 00:35:00, 763648500.00, 0.004200, 0.015100, -0.045200
2024/03/14 00:40:00, 763648800.00, 0.017100, 0.019900, -0.006400
2024/03/14 00:45:00, 763649100.00, 0.014800, 0.024600, -0.034700
2024/03/14 00:50:00, 763649400.00, 0.026700, 0.015100, -0.049800
2024/03/14 00:55:00, 763649700.00, 0.030100, 0.020400, -0.037000
2024/03/14 01:00:00, 763650000.00, 0.020000, 0.018000, -0.040800
2024/03/14 01:05:00, 763650300.00, 0.008700, 0.022600, -0.017200
2024/03/14 01:10:00, 763650600.00, -0.003800, 0.023200, -0.047300
2024/03/14 01:15:00, 763650900.00, 0.010000, 0.026300, -0.067400
2024/03/14 01:20:00, 763651200.00, 0.017200, 0.037700, -0.058600
2024/03/14 01:25:00, 763651500.00, 0.031700, 0.015500, -0.075300
2024/03/14 01:30:00, 763651800.00, 0.019800, 0.029000, -0.080500
2024/03/14 01:35:00, 763652100.00, 0.015200, 0.031700, -0.047800
2024/03/14 01:40:00, 763652400.00, -0.000900, 0.024100, -0.047600
2024/03/14 01:45:00, 763652700.00, -0.009100, 0.023500, -0.060700
2024/03/14 01:50:00, 763653000.00, 0.035500, 0.045700, -0.042300
2024/03/14 01:55:00, 763653300.00, 0.014800, 0.031600, -0.065000
2024/03/14 02:00:00, 763653600.00, 0.014300, 0.035400, -0.056700
2024/03/14 02:05:00, 763653900.00, 0.012300, 0.051500, -0.040900
2024/03/14 02:10:00, 763654200.00, 0.032200, 0.030000, -0.066300
2024/03/14 02:15:00, 763654500.00, 0.026400, 0.031400, -0.053400
2024/03/14 02:20:00, 763654800.00, 0.022100, 0.034400, -0.046600
2024/03/14 02:25:00, 763655100.00, 0.034600, 0.034300, -0.027600
2024/03/14 02:30:00, 763655400.00, 0.033900, 0.049300, -0.012000
2024/03/14 02:35:00, 763655700.00, 0.035700, 0.048900, -0.033700
2024/03/14 02:40:00, 763656000.00, 0.035400, 0.040500, -0.057500
2024/03/14 02:45:00, 763656300.00, 0.023500, 0.043000, -0.050500
2024/03/14 02:50:00, 763656600.00, 0.021300, 0.035700, -0.080600
2024/03/14 02:55:00, 763656900.00, 0.020900, 0.043800, -0.061600
2024/03/14 03:00:00, 763657200.00, 0.018100, 0.045000, -0.055000
2024/03/14 03:05:00, 763657500.00, 0.026800, 0.043600, -0.058500
2024/03/14 03:10:00, 763657800.00, 0.017500, 0.044400, -0.065100
2024/03/14 03:15:00, 763658100.00, 0.024500, 0.043300, -0.057000
2024/03/14 03:20:00, 763658400.00, 0.022000, 0.039300, -0.052500
2024/03/14 03:25:00, 763658700.00, 0.027000, 0.037500, -0.065300
2024/03/14 03:30:00, 763659000.00, 0.025600, 0.043100, -0.085400
2024/03/14 03:35:00, 763659300.00, 0.024500, 0.041000, -0.079500
2024/03/14 03:40:00, 763659600.00, 0.016700, 0.049500, -0.065000
2024/03/14 03:45:00, 763659900.00, 0.017800, 0.042100, -0.056900
2024/03/14 03:50:00, 763660200.00, 0.023300, 0.050200, -0.054200
2024/03/14 03:55:00, 763660500.00, 0.026800, 0.037200, -0.098700
2024/03/14 04:00:00, 763660800.00, 0.027700, 0.041000, -0.079200
2024/03/14 04:05:00, 763661100.00, 0.019800, 0.040300, -0.065400
2024/03/14 04:10:00, 763661400.00, 0.013200, 0.048700, -0.093700
2024/03/14 04:15:00, 763661700.00, 0.009000, 0.045800, -0.095800
2024/03/14 04:20:00, 763662000.00, 0.020800, 0.032900, -0.074500
2024/03/14 04:25:00, 763662300.00, 0.003700, 0.037200, -0.124600
2024/03/14 04:30:00, 763662600.00, 0.040400, 0.036600, -0.110300
2024/03/14 04:35:00, 763662900.00, 0.017400, 0.026100, -0.100900
2024/03/14 04:40:00, 763663200.00, 0.027200, 0.037600, -0.095700
2024/03/14 04:45:00, 763663500.00, 0.033100, 0.039000, -0.072100
2024/03/14 04:50:00, 763663800.00, 0.024700, 0.046100, -0.083500
2024/03/14 04:55:00, 763664100.00, 0.025700, 0.037200, -0.055900
2024/03/14 05:00:00, 763664400.00, 0.022100, 0.031500, -0.070700
2024/03/14 05:05:00, 763664700.00, 0.021000, 0.031300, -0.105500
2024/03/14 05:10:00, 763665000.00, 0.020000, 0.028800, -0.072300
2024/03/14 05:15:00, 763665300.00, 0.026700, 0.021800, -0.085300
2024/03/14 05:20:00, 763665600.00, 0.022700, 0.037600, -0.093600
2024/03/14 05:25:00, 763665900.00, 0.021600, 0.025600, -0.080300
2024/03/14 05:30:00, 763666200.00, 0.019100, 0.025300, -0.055800
2024/03/14 05:35:00, 763666500.00, 0.028100, 0.035900, -0.043000
2024/03/14 05:40:00, 763666800.00, 0.021100, 0.034200, -0.034600
2024/03/14 05:45:00, 763667100.00, 0.022000, 0.037500, -0.052300
2024/03/14 05:50:00, 763667400.00, 0.016800, 0.039400, -0.093700
2024/03/14 05:55:00, 763667700.00, 0.013800, 0.047400, -0.068000
2024/03/14 06:00:00, 763668000.00, 0.001100, 0.049600, -0.080100
2024/03/14 06:05:00, 763668300.00, -0.005300, 0.050500, -0.082100
2024/03/14 06:10:00, 763668600.00, 0.003200, 0.042900, -0.072400
2024/03/14 06:15:00, 763668900.00, -0.006800, 0.061800, -0.101300
2024/03/14 06:20:00, 763669200.00, 0.008900, 0.053100, -0.077900
2024/03/14 06:25:00, 763669500.00, 0.004000, 0.053300, -0.093200
2024/03/14 06:30:00, 763669800.00, 0.011200, 0.045400, -0.062800
2024/03/14 06:35:00, 763670100.00, 0.016600, 0.045500, -0.088000